Время (UTC), дата Ветер
(°,м/с) 
Видим.   Явления Облачность Т
(°С)
Тd
(°С)
f(%) Тe
(°С)
Pmin
(гПа)
dP
(гПа)
Po
(мм)
O2
(г/м3)
Тmin Tmax R s Состояние
почвы
00 01.06.10 тихо ()   10 км  {ливн. осадки}  4/0 средняя 
[Ac cast]
+12.8 +11.4 91 +16  1019.5  0.2  754  288           
03 01.06.10 240 (ЮЗ) >10 км    6/0 средняя 
[Ac lent]
+15.7 +11.7 77 +20  1020.2  0.8  755  285           
06 01.06.10 260 (З) >10 км    10/0 средняя 
[Ac lent]
+19.6 +12.5 64 +26  1020.2  0.2  755  281  +12.2         
09 01.06.10 330 (СЗ) >10 км    8/0 верхняя 
[Cs]
+22.5 +12.1 52 +26  1020  755  279           
12 01.06.10 350 (С) >10 км    8/3 600 м средняя, верхняя 
[Cu hum|Ac cast|Ci fib]
+24.9 +10.9 41 +27  1020  0.1  755  277           
15 01.06.10 240 (ЮЗ) >10 км    8/3 1000 м средняя, верхняя 
[Sc diur, vesp|Ac lent|Ci fib]
+24.4 +7 33 +24  1019.6  -0.3  754  278           
18 01.06.10 тихо ()   10 км    8/0 верхняя 
[Ci fib]
+19.3 +10.2 56 +21  1020.3  0.5  755  282    +25.5       
21 01.06.10 тихо ()   10 км    ясно 
+18.1 +8 52 +18  1020.4  755  284           
00 02.06.10 100 (В) 10 км    10/0 средняя, верхняя 
[Ac cast|Ci fib]
+16.9 +7.3 53 +18  1020.3  -0.2  755  285           
03 02.06.10 130 (ЮВ) >10 км    10/0 средняя, верхняя 
[Ac lent|Ci fib]
+17.5 +9 57 +18  1020.2  755  284           
06 02.06.10 180 (Ю) >10 км    10/0 верхняя 
[Ci fib]
+22.9 +9.9 44 +24  1019.8  -0.1  755  279  +15.8         
09 02.06.10 270 (З) 10 км  слаб. дождь  10/6 600 м средняя 
[Sc|As op]
+24 +11.2 45 +27  1020.4  0.6  755  278           
12 02.06.10 230 (ЮЗ) 10 км  слаб. дождь  10/10 600 м 
[Sc]
+20.9 +13.4 62 +27  1020.5  755  280           
15 02.06.10 150 (ЮВ) 10 км  {дождь}  10/0 средняя, верхняя 
[Ac cast|Ci fib]
+22.1 +13.6 59 +28  1019.2  -1.3  754  278           
18 02.06.10 150 (ЮВ) 10 км    8/4 1000 м средняя 
[Sc diur, vesp|Ac lent]
+20.3 +11.9 58 +24  1018.7  -0.6  754  280    +24.9  0.0     
21 02.06.10 130 (ЮВ) 10 км    3/3 1000 м 
[Sc]
+18.3 +10.5 60 +22  1018.1  -0.7  753  282           
00 03.06.10 150 (ЮВ) 10 км    3/0 средняя 
[Ac lent]
+17.5 +8.1 54 +19  1017.7  -0.4  753  284           
03 03.06.10 150 (ЮВ) >10 км    9/4 1000 м средняя 
[Sc|Ac cast]
+18.1 +9.8 58 +21  1016.3  -1.3  752  282           
06 03.06.10 160 (Ю) >10 км    9/0 средняя, верхняя 
[Ac cast|Ci fib]
+20.4 +11.3 56 +23  1016  -0.2  752  280  +16.8         
09 03.06.10 250 (З) >10 км    8/3 1000 м средняя, верхняя 
[Cu Sc|Ac cast|Ci fib]
+26.9 +11.1 37 +29  1015.3  -0.3  751  274           
12 03.06.10 270 (З) >10 км    8/3 1000 м средняя, верхняя 
[Cu med, cong|Ac cast|Ci fib]
+29.3 +10.5 31 +31  1013.9  -1.3  750  271           
15 03.06.10 тихо ()   >10 км    9/3 1000 м средняя, верхняя 
[Cu Sc|Ac cast|Ci fib]
+27.9 +13 40 +33  1012.7  -1.3  749  271           
18 03.06.10 тихо ()   10 км    10/0 верхняя 
[Cs]
+23.7 +13.2 52 +29  1012.7  -0.2  749  275    +29.7       
21 03.06.10 160 (Ю) 10 км    5/0 верхняя 
[Ci fib]
+18.3 +12.6 69 +25  1012.6  -0.4  749  280           
00 04.06.10 тихо ()   10 км    5/0 средняя, верхняя 
[Ac cast|Ci fib]
+18.9 +11 60 +21  1012.4  -0.1  749  280           
03 04.06.10 150 (ЮВ) >10 км    ясно 
+19.8 +10.6 55 +23  1012.4  749  279           
06 04.06.10 140 (ЮВ) >10 км    ясно 
+26.3 +12.7 43 +31  1012.2  0.1  749  273  +17         
09 04.06.10 140 (ЮВ) >10 км    8/0 верхняя 
[Ci fib]
+30.5 +5.5 21 +31  1011.4  -0.6  749  270           
12 04.06.10 140 (ЮВ) >10 км    10/0 верхняя 
[Ci]
+30.7 +8.9 26 +31  1010.1  -1.3  748  269           
15 04.06.10 150 (ЮВ) >10 км    10/0 средняя, верхняя 
[Ac cuf|Ci sp]
+30.4 +11.8 32 +34  1008.3  -1.8  746  268           
18 04.06.10 150 (ЮВ) 10 км    10/0 средняя, верхняя 
[Ac As|Ci sp]
+24.7 +9.3 38 +25  1007.6  -0.9  746  274    +31.7       
21 04.06.10 140 (ЮВ) 10 км    10/0 средняя 
[Ac und]
+22.9 +11.8 50 +27  1005.4  -2.2  744  274           
00 05.06.10 тихо ()   10 км    10/0 
[Sc]
+22.5 +10.5 47 +25  1003.8  -1.6  743  275           
03 05.06.10 тихо ()   >10 км    9/0 средняя 
[Ac cast]
+21.5 +10.5 49 +24  1003.5  -0.4  742  275           
06 05.06.10 230 (ЮЗ) >10 км    4/3 600 м верхняя 
[Cu med, cong|Ci fib]
+24.1 +13.7 52 +31  1003.8  0.4  743  272  +20.9         
09 05.06.10 230 (ЮЗ) 4{11}  >10 км    8/6 600 м средняя, верхняя 
[Cu med, cong|Ac lent|Ci fib]
+26 +9 34 +26  1003.1  -0.6  742  272           
12 05.06.10 230 (ЮЗ) 4{11}  >10 км    8/6 600 м средняя, верхняя 
[Cu med, cong|Ac lent|Ci fib]
+26.6 +8.9 33 +27  1001.8  -1.3  741  271           
15 05.06.10 240 (ЮЗ) 2{14}  >10 км  {гроза, ливн. осадки}  6/0 средняя 
[Ac cast]
+22 +12.7 56 +27  1002.4  0.4  742  274           
18 05.06.10 290 (З) 10 км  в посл. час ливневой дождь{гроза}  10/10 300 м 
[Frnb]
+16.7 +14.6 87 +26  1003.4  0.8  742  279    +27.8  0.9     
21 05.06.10 260 (З) 4{11}  10 км    10/10 600 м 
[Sc]
+13.9 +9.8 76 +15  1006.3  2.7  744  284           
00 06.06.10 280 (З) 10 км    4/0 средняя 
[Ac lent]
+11.9 +9.2 83 +12  1009.1  2.7  746  286           
03 06.06.10 270 (З) >10 км    3/3 600 м 
[Cu med, cong]
+11.3 +5.8 69 +11  1012.3  3.1  749  289           
06 06.06.10 310 (СЗ) 4{10}  >10 км    6/6 600 м 
[Cu med, cong]
+12.7 +4.3 57 +12  1013.3  749  288  +11.2    0.3     
09 06.06.10 280 (З) 4{10}  >10 км    3/3 600 м 
[Cu hum]
+15.3 +1.7 40 +15  1013.7  0.6  750  286           
12 06.06.10 280 (З) >10 км    4/4 600 м 
[Cu med, cong]
+16.6 +1.9 37 +17  1013.5  -0.2  750  284           
15 06.06.10 320 (СЗ) 4{10}  >10 км    8/8 600 м 
[Sc]
+15.1 +2.9 44 +15  1014.3  0.7  750  286           
18 06.06.10 020 (С) 10 км    ясно 
+12.5 +3 52 +13  1015.9  1.5  751  289    +18.1       
21 06.06.10 тихо ()   10 км    ясно 
+8.5 +3.6 71 +9  1017.9  1.7  752  293           
00 07.06.10 130 (ЮВ) 10 км    6/0 верхняя 
[Ci fib]
+7.6 +2.9 72 +9  1019.1  1.2  753  295           
03 07.06.10 тихо ()   >10 км    1/0 верхняя 
[Ci fib]
+10.9 +5.8 71 +11  1019.1  0.1  753  291           
06 07.06.10 220 (ЮЗ) >10 км    1/1 1000 м 
[Cu hum]
+15.2 +0.9 38 +16  1018.2  -0.6  753  287  +6.7         
09 07.06.10 240 (ЮЗ) >10 км    3/3 1000 м 
[Cu med, cong]
+18.1 +3 36 +19  1017  -1.1  752  284           
12 07.06.10 290 (З) >10 км    8/1 1000 м средняя 
[Cu med, cong|As trans]
+19.4 +2.7 33 +20  1015.4  -1.4  751  282           
15 07.06.10 280 (З) >10 км    10/3 1000 м средняя 
[Sc|As op]
+19.1 +1.7 31 +20  1013.8  -1.7  750  282           
18 07.06.10 290 (З) 10 км  слаб. дождь  10/10 600 м 
[Sc]
+15.1 +8 63 +16  1014.7  0.8  750  285    +20       
21 07.06.10 тихо ()   10 км  {дождь}  10/10 600 м 
[Sc]
+13.6 +9 74 +14  1014.1  -0.7  750  286           
00 08.06.10 150 (ЮВ) 10 км  в посл. час дождь  10/10 600 м 
[Sc]
+12.7 +10 84 +15  1013.5  -0.6  749  287           
03 08.06.10 240 (ЮЗ) >10 км    8/0 средняя 
[Ac cast]
+15.6 +8.2 61 +16  1012.9  -0.5  749  284           
06 08.06.10 230 (ЮЗ) 3{10}  >10 км    8/0 средняя, верхняя 
[Ac cast|Ci fib]
+20.1 +8.2 46 +20  1012.7  749  280  +12.7    0.4     
09 08.06.10 240 (ЮЗ) >10 км    10/4 600 м средняя, верхняя 
[Sc diur, vesp|Ac cast|Ci fib]
+21.1 +9.3 47 +21  1012.6  749  279           
12 08.06.10 280 (З) >10 км    9/8 600 м верхняя 
[Cu Sc|Ci fib]
+22.5 +9.5 44 +23  1011.9  -0.7  749  277           
15 08.06.10 280 (З) >10 км    4/3 600 м верхняя 
[Cu hum|Ci fib]
+23.5 +10.7 44 +26  1011.5  -0.3  748  276           
18 08.06.10 170 (Ю) 10 км    6/0 средняя 
[Ac lent]
+19.4 +12.3 63 +25  1011.3  -0.3  748  279    +24       
21 08.06.10 тихо ()   10 км    8/0 средняя 
[Ac cast]
+17 +11.3 69 +20  1011.1  -0.3  748  282           
00 09.06.10 170 (Ю) 10 км    8/0 средняя 
[Ac cast]
+16 +12.4 79 +22  1010.1  -1.1  747  282           
03 09.06.10 150 (ЮВ) >10 км    10/6 600 м средняя 
[Sc|Ac cast]
+16.4 +10.6 69 +20  1009.7  -0.4  747  282           
06 09.06.10 190 (Ю) >10 км  {дождь}  8/0 средняя 
[Ac cast]
+21 +12.3 58 +25  1008.6  -0.8  746  277  +15.7         
09 09.06.10 270 (З) 4{10}  >10 км    9/6 600 м средняя 
[Cu med, cong|Ac cast]
+25.7 +9.5 36 +26  1007.4  -1.1  745  273           
12 09.06.10 280 (З) 4{11}  >10 км    8/6 600 м кучево-дожд., средняя 
[Cb calv|Ac cast]
+25 +11.2 42 +28  1006.9  -0.5  745  273           
15 09.06.10 260 (З) 3{11}  >10 км    4/0 средняя 
[Ac lent]
+23.8 +9.3 40 +24  1007.3  0.3  745  275           
18 09.06.10 360 (С) 10 км    6/6 600 м 
[Sc]
+19.9 +13.2 65 +27  1008.5  1.1  746  278    +26.3  0.0     
21 09.06.10 350 (С) 10 км  в посл. час дождь  10/10 600 м 
[Sc diur, vesp]
+14.9 +13.2 90 +22  1010.6  1.9  747  283           
00 10.06.10 020 (С) 10 км  {дождь}  10/10 600 м 
[Sc]
+11.1 +8.6 85 +11  1012.6  1.7  749  288           
03 10.06.10 020 (С) >10 км    6/6 600 м 
[Sc]
+10.4 +6.1 75 +11  1014.5  1.8  750  290           
06 10.06.10 060 (СВ) >10 км    3/0 верхняя 
[Ci fib]
+14.5 +3.4 47 +15  1015.7  1.4  751  287  +10.3    0.4     
09 10.06.10 350 (С) >10 км    4/3 600 м верхняя 
[Cu hum|Ci fib]
+16.9 +1.9 36 +18  1015.8  0.2  751  285           
12 10.06.10 020 (С) >10 км    8/3 600 м верхняя 
[Cu hum|Ci fib]
+18.5 +2.7 35 +19  1015.9  0.2  751  283           
15 10.06.10 010 (С) >10 км    8/3 600 м верхняя 
[Sc|Ci fib]
+18.1 +2.3 35 +19  1015.4  -0.5  751  283           
18 10.06.10 020 (С) 10 км    8/0 средняя 
[Ac lent]
+16.2 +3.4 42 +18  1016  0.5  751  285    +19.3       
21 10.06.10 030 (СВ) 10 км    ясно 
+14.7 +4.6 51 +16  1016  -0.1  751  287           
00 11.06.10 030 (СВ) 10 км    6/0 средняя 
[Ac lent]
+11.6 +5.3 65 +13  1016.2  0.1  751  290           
03 11.06.10 300 (СЗ) >10 км    8/0 средняя 
[Ac cast]
+13.1 +5 58 +14  1017.4  1.2  752  288           
06 11.06.10 280 (З) >10 км    8/6 600 м средняя 
[Cu med, cong|Ac cast]
+16.4 +4 44 +18  1017.5  0.2  752  285  +11.3         
09 11.06.10 270 (З) >10 км    8/4 600 м средняя 
[Cu med, cong|Ac cast]
+18.5 +3 36 +19  1017.4  752  284           
12 11.06.10 260 (З) >10 км    3/0 средняя 
[Ac lent]
+19.9 +4.1 35 +21  1016.6  -0.7  752  282           
15 11.06.10 270 (З) >10 км    ясно 
+20.2 +4.3 35 +20  1016  -0.5  752  281           
18 11.06.10 тихо ()   10 км    ясно 
+15.5 +7 57 +16  1016.5  0.3  752  286    +21       
21 11.06.10 140 (ЮВ) 10 км    ясно 
+14.1 +6.4 60 +15  1016.6  752  287           
00 12.06.10 тихо ()   10 км    4/0 верхняя 
[Ci fib]
+11.7 +6.2 69 +12  1016.6  -0.1  752  289           
03 12.06.10 150 (ЮВ) 10 км    10/0 средняя, верхняя 
[Ac und|Ci fib]
+14.5 +9.4 71 +16  1016.5  752  286           
06 12.06.10 180 (Ю) >10 км    8/0 средняя, верхняя 
[Ac cast|Ci fib]
+21.5 +8.1 42 +22  1014.8  -1.3  751  279  +11.4         
09 12.06.10 220 (ЮЗ) 2{11}  >10 км    10/0 средняя, верхняя 
[Ac As|Ci fib]
+22.5 +10.3 46 +24  1012.6  -2.2  749  277           
12 12.06.10 180 (Ю) >10 км    10/4 600 м верхняя 
[Sc diur, vesp|Ci fib]
+23.4 +10.2 43 +25  1008.6  -3.9  746  275           
15 12.06.10 240 (ЮЗ) >10 км  {ливн. осадки}  10/3 300 м кучево-дожд., средняя, верхняя 
[Cb cap|Ac cuf|Ci fib]
+25.3 +14.8 52 +34  1004.9  -3.5  744  271           
18 12.06.10 220 (ЮЗ) 2000 м  сильн. ливневой дождь  10/5 300 м средняя 
[Sc|Ac As]
+26.1 +13.1 45 +32  1003.4  -1.5  742  271    +25.4  0.3     
21 12.06.10 010 (С) 2{13}  10 км  слаб. ливневой дождь{гроза}  10/8 300 м кучево-дожд., средняя 
[Cb cap|Ac inh]
+22.7 +16.1 66 +34  1003.6  0.1  743  273           
00 13.06.10 240 (ЮЗ) 10 км  {гроза, ливн. осадки}  4/0 средняя 
[Ac lent]
+19.6 +17.8 89 +35  1004.7  0.9  743  275           
03 13.06.10 250 (З) >10 км    ясно 
+20.9 +17.7 82 +35  1006  1.4  744  275           
06 13.06.10 210 (ЮЗ) >10 км    ясно 
+25.5 +15.5 54 +35  1007.6  1.7  746  271  +18.5         
09 13.06.10 230 (ЮЗ) >10 км    3/3 1000 м 
[Cu med, cong]
+28.3 +14.2 42 +36  1007.5  0.1  746  269           
12 13.06.10 250 (З) >10 км    ясно 
+30.7 +12.4 33 +35  1006.5  -0.9  745  268           
15 13.06.10 240 (ЮЗ) >10 км    ясно 
+31 +11.8 31 +35  1003.5  -2.9  743  267           
18 13.06.10 190 (Ю) 10 км    6/3 600 м верхняя 
[Sc diur, vesp|Ci fib]
+28.3 +14.6 43 +37  1002.6  -1  742  268    +31.2       
21 13.06.10 250 (З) 10 км    ясно 
+28.3 +12.8 38 +34  1002.2  -0.5  742  268           
00 14.06.10 260 (З) 10 км    ясно 
+22.5 +15.1 63 +32  1003  0.6  742  273           
03 14.06.10 260 (З) >10 км    9/0 средняя 
[Ac und]
+21.3 +16 72 +32  1004.5  1.4  743  274           
06 14.06.10 260 (З) >10 км    3/0 верхняя 
[Ci fib]
+21.6 +12.4 56 +26  1006.8  2.3  745  276  +21         
09 14.06.10 270 (З) 3{10}  >10 км    1/1 600 м 
[Cu med, cong]
+22.5 +10 45 +24  1008.2  1.4  746  276           
12 14.06.10 280 (З) >10 км    3/3 600 м 
[Cu med, cong]
+23.5 +9.8 42 +24  1009.3  1.1  747  275           
15 14.06.10 280 (З) >10 км    1/1 600 м 
[Sc diur, vesp]
+22.1 +8.2 41 +22  1009.5  0.2  747  277           
18 14.06.10 350 (С) 10 км    6/6 600 м 
[Sc diur, vesp]
+19.5 +10 54 +22  1011.7  748  280    +23.8       
21 14.06.10 300 (СЗ) 10 км    8/3 1000 м средняя 
[Sc|Ac cast]
+18.1 +9.8 58 +21  1012.3  0.5  749  281           
00 15.06.10 360 (С) 10 км    3/3 600 м 
[Sc]
+15.9 +9.5 66 +18  1013.3  0.9  749  284           
03 15.06.10 010 (С) >10 км    8/0 средняя 
[Ac lent]
+17.1 +9.4 60 +18  1014.5  1.3  750  283           
06 15.06.10 010 (С) >10 км    9/1 600 м верхняя 
[Cu hum|Ci fib]
+19.6 +9.9 53 +22  1014.5  0.1  750  280  +15.1         
09 15.06.10 310 (СЗ) >10 км    8/4 600 м верхняя 
[Cu med, cong|Ci fib]
+21.7 +10.2 48 +23  1014.3  -0.1  750  278           
12 15.06.10 300 (СЗ) >10 км    8/6 300 м средняя, верхняя 
[Frnb|Ac cast|Ci fib]
+23.7 +7 34 +24  1014  -0.2  750  277           
15 15.06.10 010 (С) >10 км    8/5 600 м средняя 
[Sc|Ac lent]
+21.7 +8.9 44 +22  1013.6  -0.5  750  278           
18 15.06.10 020 (С) 10 км    8/0 средняя 
[Ac cast]
+20.1 +9.4 50 +21  1013.6  -0.1  750  280    +24       
21 15.06.10 тихо ()   10 км    ясно 
+18.1 +9.5 57 +19  1013.3  -0.4  749  282           
00 16.06.10 тихо ()   10 км    8/0 средняя 
[Ac cast]
+14.9 +10.3 74 +16  1013.2  -0.2  749  284           
03 16.06.10 тихо ()   10 км    10/0 средняя 
[Ac trans]
+17.5 +11.2 67 +20  1012.9  -0.2  749  282           
06 16.06.10 тихо ()   10 км  в посл. час дождь  10/10 1000 м 
[Sc]
+18 +13.2 74 +24  1012.9  749  281  +14.6         
09 16.06.10 230 (ЮЗ) >10 км    8/3 600 м верхняя 
[Cu med, cong|Ci fib]
+21.9 +10.6 49 +24  1011.7  -1  748  277           
12 16.06.10 180 (Ю) >10 км    6/6 600 м 
[Cu hum]
+23.7 +10.3 43 +25  1010  -0.4  747  275           
15 16.06.10 180 (Ю) >10 км    10/10 600 м 
[Sc diur, vesp]
+21 +11.1 53 +24  1008.6  -1.4  746  277           
18 16.06.10 130 (ЮВ) 10 км  в посл. час дождь  10/10 600 м 
[Sc]
+19.4 +13 66 +26  1006.7  -2  745  278    +24.3  0.5     
21 16.06.10 130 (ЮВ) 10 км    8/0 средняя 
[Ac cast]
+19 +12.8 67 +26  1003.8  -2.9  743  277           
00 17.06.10 150 (ЮВ) 2{10}  10 км  в посл. час дождь  8/6 600 м средняя 
[Sc|Ac cast]
+17.5 +14 80 +25  1001  -2.8  740  277           
03 17.06.10 270 (З) >10 км    8/0 средняя, верхняя 
[Ac cast|Ci fib]
+18.2 +15.1 82 +28  1000.5  -0.6  740  276           
06 17.06.10 260 (З) 5-11{11}  >10 км    8/3 600 м верхняя 
[Cu med, cong|Ci fib]
+18.5 +10.3 59 +21  1002  1.3  741  278  +16.8         
09 17.06.10 280 (З) 5-11{12}  >10 км    8/1 600 м верхняя 
[Cu hum|Ci fib]
+18.6 +6.8 46 +19  1002.7  0.7  742  279           
12 17.06.10 290 (З) 3{11}  >10 км    9/3 600 м верхняя 
[Cu hum|Ci fib]
+19.9 +5.8 40 +21  1003.7  1.1  742  278           
15 17.06.10 270 (З) 4{10}  >10 км    9/3 600 м верхняя 
[Cu Sc|Ci fib]
+19.7 +4.3 36 +20  1003  -0.7  742  278           
18 17.06.10 250 (З) 10 км    9/9 600 м 
[Sc diur, vesp]
+16.9 +5 45 +17  1004.5  1.3  743  281    +20.3       
21 17.06.10 270 (З) 10 км    4/0 верхняя 
[Ci fib]
+13.5 +5 56 +14  1005.3  0.7  743  285           
00 18.06.10 280 (З) >10 км    ясно 
+11.5 +6.8 73 +11  1005.1  -0.3  743  286           
03 18.06.10 270 (З) >10 км    ясно 
+11.9 +6.8 71 +11  1005.3  0.2  743  286           
06 18.06.10 270 (З) 10 км    10/10 600 м 
[Sc]
+13 +6.5 65 +13  1006.4  1.2  744  285  +11         
09 18.06.10 270 (З) 10 км    9/9 600 м 
[Sc]
+14.6 +6.4 58 +15  1007.6  1.2  745  284           
12 18.06.10 280 (З) 10 км    9/9 600 м 
[Sc]
+15.8 +6.7 55 +16  1008.5  746  283           
15 18.06.10 290 (З) 10 км    10/10 600 м 
[Sc]
+15.3 +7 58 +16  1009.4  0.9  747  284           
18 18.06.10 310 (СЗ) 10 км    10/10 600 м 
[Sc]
+14.5 +7.7 64 +16  1010.5  747  285    +16.7       
21 18.06.10 300 (СЗ) 10 км    10/10 600 м 
[Sc]
+13.9 +7.8 67 +15  1011.1  0.5  748  285           
00 19.06.10 320 (СЗ) 10 км    10/10 600 м 
[Sc]
+13.1 +8.9 76 +14  1011.8  0.7  748  286           
03 19.06.10 030 (СВ) >10 км    10/10 1000 м 
[Sc]
+13.3 +9.4 77 +15  1013.3  1.5  749  286           
06 19.06.10 010 (С) >10 км    10/8 600 м средняя 
[Cu Sc|Ac cast]
+15.2 +9.4 68 +17  1014.6  1.4  750  285  +13.1         
09 19.06.10 240 (ЮЗ) >10 км    8/3 600 м верхняя 
[Cu med, cong|Ci fib]
+18.1 +5.9 45 +20  1015.1  0.6  751  283           
12 19.06.10 250 (З) >10 км    8/5 1000 м средняя 
[Cu med, cong|Ac cast]
+18.6 +5.3 42 +20  1015.4  0.3  751  283           
15 19.06.10 260 (З) >10 км    1/1 1000 м 
[Sc diur, vesp]
+19.4 +8 48 +20  1016.5  1.2  752  282           
18 19.06.10 290 (З) 10 км    1/1 600 м 
[Sc]
+17.3 +8.5 56 +19  1018  1.3  753  284    +20.6  0.0     
21 19.06.10 тихо ()   10 км    ясно 
+12.9 +9.4 79 +13  1019.5  1.3  754  288           
00 20.06.10 300 (СЗ) 10 км    ясно 
+13.3 +8.8 74 +15  1020.8  1.3  755  289           
03 20.06.10 360 (С) >10 км    ясно 
+14.6 +8.2 65 +16  1022.7  1.9  756  288           
06 20.06.10 060 (СВ) >10 км    3/3 600 м 
[Cu hum]
+19.1 +6.5 44 +20  1023.5  1.1  757  284  +12.2         
09 20.06.10 020 (С) >10 км    3/3 600 м 
[Cu hum]
+21.5 +4.6 33 +22  1023.9  0.4  757  282           
12 20.06.10 020 (С) >10 км    3/1 600 м верхняя 
[Cu hum|Ci]
+22.6 +5.1 32 +23  1023.5  -0.4  757  281           
15 20.06.10 020 (С) >10 км    3/0 верхняя 
[Ci fib]
+22.7 +5.3 32 +23  1023.4  -0.1  757  281           
18 20.06.10 060 (СВ) 10 км    3/0 верхняя 
[Ci fib]
+18.3 +7.4 49 +20  1024.2  0.7  758  285    +23.9       
21 20.06.10 090 (В) 10 км    ясно 
+17.8 +4.6 42 +19  1024.8  0.6  758  286           
00 21.06.10 070 (В) 10 км    ясно 
+13 +6.5 65 +14  1025.7  0.7  759  291           
03 21.06.10 120 (ЮВ) >10 км    ясно 
+18.9 +7.6 48 +20  1026.5  1.1  759  285           
06 21.06.10 160 (Ю) >10 км    ясно 
+22.8 +6.1 34 +23  1026.9  0.4  760  282  +12.3         
09 21.06.10 080 (В) >10 км    4/0 средняя 
[Ac lent]
+24.2 +3.2 25 +24  1025.8  -1  759  280           
12 21.06.10 230 (ЮЗ) >10 км    3/0 верхняя 
[Ci fib]
+25.9 +8.1 32 +26  1024.2  -1.5  758  278           
15 21.06.10 150 (ЮВ) >10 км    3/0 верхняя 
[Ci fib]
+26 +8.5 33 +26  1023  -1.2  757  277           
18 21.06.10 тихо ()   10 км    3/0 верхняя 
[Ci fib]
+20.5 +8.2 45 +21  1023.5  0.3  757  282    +26.8       
21 21.06.10 тихо ()   10 км    ясно 
+18.7 +7.7 49 +19  1023.6  757  284           
00 22.06.10 тихо ()   10 км    ясно 
+14.4 +7.6 64 +14  1023.8  757  289           
03 22.06.10 тихо ()   >10 км    ясно 
+19.9 +8.4 47 +20  1023.5  757  283           
06 22.06.10 190 (Ю) >10 км    ясно 
+24.9 +10.4 40 +26  1022.9  -0.4  757  278  +14.2         
09 22.06.10 320 (СЗ) >10 км    ясно 
+27.3 +8.4 30 +27  1021.7  -1.1  756  276           
12 22.06.10 300 (СЗ) >10 км    ясно 
+28.7 +8.2 28 +29  1020.4  -1.2  755  274           
15 22.06.10 190 (Ю) >10 км    ясно 
+27.8 +5.1 24 +28  1019  -1.4  754  275           
18 22.06.10 тихо ()   10 км    ясно 
+22.4 +9.7 44 +23  1018.8  -0.5  754  279    +29       
21 22.06.10 тихо ()   10 км    ясно 
+18.9 +9.9 56 +20  1018.5  -0.4  753  282           
00 23.06.10 тихо ()   10 км    ясно 
+17.5 +8.8 57 +18  1019.3  0.7  754  284           
03 23.06.10 тихо ()   >10 км    ясно 
+22.1 +8 40 +22  1018.7  -0.4  754  280           
06 23.06.10 240 (ЮЗ) >10 км    ясно 
+26 +12.6 43 +31  1018.5  754  275  +16.9         
09 23.06.10 110 (В) >10 км    10/0 верхняя 
[Ci fib]
+29.9 +11 31 +32  1017.5  -0.8  753  272           
12 23.06.10 210 (ЮЗ) >10 км    3/0 верхняя 
[Ci fib]
+30.5 +10.6 29 +32  1016.3  -1.1  752  271           
15 23.06.10 160 (Ю) >10 км    ясно 
+29.7 +8.8 27 +30  1015.1  -1.2  751  272           
18 23.06.10 тихо ()   10 км    ясно 
+24.3 +10.2 41 +26  1015  -0.4  751  276    +31.7       
21 23.06.10 тихо ()   10 км    ясно 
+20.3 +12.1 59 +24  1015.1  -0.1  751  279           
00 24.06.10 тихо ()   10 км    ясно 
+18.9 +12.1 65 +23  1015.2  0.1  751  281           
03 24.06.10 тихо ()   >10 км    5/0 верхняя 
[Ci fib]
+21.9 +12.8 56 +27  1015.5  0.4  751  278           
06 24.06.10 тихо ()   >10 км    6/0 верхняя 
[Ci fib]
+28.3 +15.1 45 +37  1015.1  751  271  +17.7         
09 24.06.10 350 (С) >10 км    8/0 верхняя 
[Ci fib]
+31.1 +5.1 19 +31  1014.9  -0.2  751  271           
12 24.06.10 010 (С) >10 км    3/1 600 м верхняя 
[Cu hum|Ci fib]
+32.3 +5.5 19 +32  1014.5  -0.4  751  270           
15 24.06.10 280 (З) >10 км    10/0 верхняя 
[Ci]
+31.5 +6.8 21 +32  1013.6  -0.9  750  270           
18 24.06.10 тихо ()   10 км    10/0 средняя, верхняя 
[Ac lent|Ci]
+26.1 +13.8 47 +33  1013.7  -0.1  750  273    +23.7       
21 24.06.10 тихо ()   10 км    10/0 средняя, верхняя 
[Ac lent|Ci]
+22.1 +11.5 51 +25  1014.3  0.4  750  278           
00 25.06.10 тихо ()   10 км    5/0 средняя 
[Ac lent]
+18.3 +12.2 68 +22  1015.5  0.8  751  281           
03 25.06.10 тихо ()   >10 км    10/1 600 м верхняя 
[Cu hum|Ci]
+24 +15 57 +33  1015.1  0.1  751  275           
06 25.06.10 тихо ()   >10 км    10/1 600 м средняя, верхняя 
[Cu hum|Ac lent|Ci]
+29.9 +17.5 47 +43  1014.7  -0.1  751  269  +18.1         
09 25.06.10 300 (СЗ) >10 км    3/3 600 м 
[Cu hum]
+31.9 +15.9 38 +42  1014.6  -0.1  751  268           
12 25.06.10 360 (С) >10 км    4/4 600 м 
[Cu hum]
+34.4 +15.1 31 +43  1013.9  -0.5  751  266           
15 25.06.10 250 (З) >10 км    1/1 600 м 
[Cu hum]
+33.6 +15.4 34 +43  1013.5  -0.5  750  266           
18 25.06.10 тихо ()   10 км    3/1 600 м верхняя 
[Sc diur, vesp|Ci fib]
+26.9 +10.2 35 +28  1014  0.3  750  273    +35.1       
21 25.06.10 150 (ЮВ) 10 км    4/0 верхняя 
[Ci fib]
+24.1 +9.2 39 +24  1014.5  0.3  751  276           
00 26.06.10 150 (ЮВ) 10 км    3/0 верхняя 
[Ci fib]
+22 +10 46 +23  1015.1  0.5  751  278           
03 26.06.10 тихо ()   >10 км    3/0 верхняя 
[Ci fib]
+24.3 +13.3 50 +30  1015.5  0.6  751  275           
06 26.06.10 300 (СЗ) >10 км    ясно 
+28.6 +13 38 +34  1015.4  0.1  752  272  +21.2         
09 26.06.10 280 (З) >10 км    ясно 
+33.1 +10.3 25 +35  1015.9  0.6  752  268           
12 26.06.10 020 (С) >10 км    3/3 600 м 
[Cu hum]
+32.9 +8.8 23 +33  1015.7  -0.2  752  269           
15 26.06.10 050 (СВ) >10 км    3/1 600 м верхняя 
[Sc diur, vesp|Ci fib]
+33.3 +8.6 22 +33  1015.3  -0.4  752  268           
18 26.06.10 050 (СВ) 10 км    10/0 средняя, верхняя 
[Ac cast|Ci fib]
+29.3 +14.5 40 +37  1015  -0.4  751  270    +34.4       
21 26.06.10 100 (В) 10 км    3/0 средняя 
[Ac cast]
+25.5 +12.5 44 +30  1017  1.7  752  275           
00 27.06.10 тихо ()   10 км    3/0 средняя 
[Ac cast]
+22.7 +13 54 +28  1017.5  0.4  753  278           
03 27.06.10 100 (В) 10 км    3/0 средняя 
[Ac cast]
+25.2 +15.3 54 +34  1017.9  0.5  753  275           
06 27.06.10 140 (ЮВ) >10 км    ясно 
+30.3 +16.6 44 +42  1017.7  0.1  753  270  +21.9         
09 27.06.10 240 (ЮЗ) >10 км    ясно 
+33.9 +14 30 +41  1017  -0.6  753  267           
12 27.06.10 150 (ЮВ) >10 км    3/0 средняя 
[Ac lent]
+34.9 +10.7 23 +37  1016.2  -0.8  752  267           
15 27.06.10 130 (ЮВ) >10 км    3/0 верхняя 
[Ci fib]
+33.9 +13.5 29 +40  1015.3  -0.9  752  267           
18 27.06.10 тихо ()   10 км    ясно 
+27.9 +14.5 44 +36  1015.2  -0.3  751  272    +35.6       
21 27.06.10 140 (ЮВ) 10 км    ясно 
+26.1 +12.3 42 +30  1015  -0.3  751  274           
00 28.06.10 120 (ЮВ) 10 км    ясно 
+21.8 +14.1 62 +29  1014.9  -0.3  751  277           
03 28.06.10 170 (Ю) >10 км    3/0 верхняя 
[Ci fib]
+23.5 +15.9 62 +34  1015  0.2  751  275           
06 28.06.10 320 (СЗ) >10 км    1/1 600 м 
[Cu med, cong]
+27.1 +13.4 43 +33  1014.6  -0.2  751  273  +21.6         
09 28.06.10 200 (Ю) >10 км    3/3 600 м 
[Cu med, cong]
+32.9 +12.5 29 +38  1013.5  -0.9  750  267           
12 28.06.10 260 (З) >10 км    9/9 600 м кучево-дожд. 
[Cb cap]
+31.5 +10.5 27 +33  1013.1  -0.5  750  269           
15 28.06.10 тихо ()   >10 км    9/0 верхняя 
[Cs]
+30.9 +11.3 30 +34  1012.2  -0.9  749  269           
18 28.06.10 тихо ()   10 км    8/0 
+26.6 +13.1 43 +32  1012.7  0.4  749  273    +33.8       
21 28.06.10 110 (В) 10 км    ясно 
+22.7 +14.2 59 +30  1012.5  -0.4  749  276           
00 29.06.10 010 (С) 10 км    4/0 средняя 
[Ac und]
+22.3 +15.9 67 +33  1011.7  -0.8  749  275           
03 29.06.10 010 (С) >10 км    3/0 верхняя 
[Ci fib]
+22.1 +8.9 43 +22  1013  1.2  749  278           
06 29.06.10 010 (С) >10 км    9/0 средняя 
[Ac cast]
+23.9 +15.7 60 +34  1013.7  0.8  750  275  +20.6         
09 29.06.10 240 (ЮЗ) >10 км    6/0 средняя 
[Ac cast]
+25.7 +15.3 53 +35  1013.8  0.2  750  273           
12 29.06.10 280 (З) >10 км    8/0 средняя 
[Ac cast]
+27.9 +9.7 32 +29  1012.9  -0.8  750  272           
15 29.06.10 350 (С) >10 км    3/0 средняя 
[Ac cast]
+26.9 +6.5 27 +27  1013  750  274           
18 29.06.10 340 (С) 10 км    4/0 верхняя 
[Ci fib]
+23.3 +6.7 34 +23  1013.8  0.7  750  277    +28.1       
21 29.06.10 030 (СВ) 10 км    3/0 верхняя 
[Ci fib]
+20.4 +7.1 42 +20  1014.6  0.6  751  280           
00 30.06.10 тихо ()   10 км    1/1 600 м 
[Sc]
+16.9 +9.2 60 +17  1015.5  0.8  751  283           
03 30.06.10 040 (СВ) >10 км    3/3 600 м 
[Sc]
+16.8 +9.5 62 +18  1016.3  0.8  752  284           
06 30.06.10 040 (СВ) >10 км    3/0 верхняя 
[Ci fib]
+20.8 +11.2 54 +24  1016.4  0.2  752  279  +15.9         
09 30.06.10 020 (С) >10 км    1/1 600 м 
[Cu hum]
+22.5 +9.5 44 +23  1016.5  0.1  752  278           
12 30.06.10 030 (СВ) >10 км    6/0 верхняя 
[Ci fib]
+23.1 +7.7 37 +23  1017.1  0.7  752  278           
15 30.06.10 360 (С) >10 км    ясно 
+22.8 +6.7 35 +23  1017.2  752  279           
18 30.06.10 050 (СВ) 10 км    ясно 
+19.3 +5 39 +20  1018  0.7  753  283    +23.5       
21 30.06.10 050 (СВ) 10 км    ясно 
+16.1 +5.1 48 +17  1018.9  0.7  754  286           
00 01.07.10 080 (В) 10 км    ясно 
+13.4 +5.6 59 +14  1019.7  0.7  754  289           
03 01.07.10 060 (СВ) >10 км    ясно 
+14.9 +5.6 54 +16  1020.4  0.7  755  287           
06 01.07.10 080 (В) >10 км    ясно 
+17.6 +8 53 +18  1021.5  1.3  756  285  +13         
09 01.07.10 070 (В) >10 км    ясно 
+20.7 +7.3 42 +21  1019.8  -1.6  754  281           
12 01.07.10 070 (В) >10 км    ясно 
+22 +8.1 41 +22  1019.4  -0.3  754  280           
15 01.07.10 080 (В) >10 км    ясно 
+22.2 +8.1 40 +22  1018.9  -0.5  754  280           
18 01.07.10 040 (СВ) 10 км    ясно 
+19.7 +6.5 42 +21  1019  754  282    +22.6       
21 01.07.10 090 (В) 10 км    ясно 
+16.1 +5.5 49 +17  1019.7  0.5  754  286           
00 02.07.10 070 (В) 10 км    ясно 
+13.9 +5.5 57 +14  1020.3  0.5  755  288           
03 02.07.10 090 (В) >10 км    ясно 
+14.9 +6.4 57 +15  1020.3  0.1  755  287           
Время (UTC), дата Ветер
(°,м/с) 
Видим.   Явления Облачность Т
(°С)
Тd
(°С)
f(%) Тe
(°С)
Pmin
(гПа)
dP
(гПа)
Po
(мм)
O2
(г/м3)
Тmin Tmax R s Состояние
почвы